Location: Kaseke
(18.0171°S, 31.0526°E)
Time: 12:38:23
(UTC+00:00)

ALOS - Pass Details

Date: 14 July 2020
Orbit: 683 x 685 km, 97.8° (Epoch: 07 August)

Event Time Altitude Azimuth Distance (km) Brightness Sun altitude
Rises 03:03:22 0° 341° (NNW) 3,030 5.6 -19.7°
Reaches altitude 10° 03:06:08 10° 324° (NW) 2,123 4.6 -19.0°
Enters shadow 03:07:13 14° 313° (NW) 1,847 4.2 -18.8°
